| time (UTC) | temp C | wind direction | speed KPH | gust KPH | rain 1hr cm | rain 24hr cm | rain mn cm | humidity % | barometer mb |
| 20260509082438 | 10 | 117 | 1.6 | 3.2 | 0.00 | 0.00 | 0.00 | 97 | 1003.8 |
| 20260509081935 | 10 | 134 | 1.6 | 3.2 | 0.00 | 0.00 | 0.00 | 96 | 1003.7 |
| 20260509081427 | 10 | 101 | 1.6 | 3.2 | 0.00 | 0.00 | 0.00 | 96 | 1003.8 |
| 20260509080924 | 10 | 140 | 1.6 | 3.2 | 0.00 | 0.00 | 0.00 | 95 | 1003.9 |
| 20260509080422 | 10 | 131 | 0.0 | 1.6 | 0.00 | 0.00 | 0.00 | 95 | 1003.5 |
| 20260509075920 | 10 | 152 | 0.0 | 1.6 | 0.00 | 0.00 | 0.00 | 95 | 1003.8 |
| 20260509075416 | 11 | 133 | 0.0 | 3.2 | 0.00 | 0.00 | 0.00 | 95 | 1003.8 |
| 20260509074914 | 11 | 102 | 0.0 | 0.0 | 0.00 | 0.00 | 0.00 | 94 | 1003.9 |
| 20260509074412 | 11 | 100 | 0.0 | 1.6 | 0.00 | 0.00 | 0.00 | 94 | 1003.7 |
| 20260509073908 | 11 | 115 | 0.0 | 0.0 | 0.00 | 0.00 | 0.00 | 93 | 1004.0 |
| 20260509073404 | 11 | 115 | 0.0 | 0.0 | 0.00 | 0.00 | 0.00 | 93 | 1003.8 |
| 20260509072901 | 11 | 149 | 1.6 | 4.8 | 0.00 | 0.00 | 0.00 | 92 | 1004.1 |
| 20260509072357 | 11 | 155 | 0.0 | 3.2 | 0.00 | 0.00 | 0.00 | 92 | 1004.3 |
| 20260509071854 | 11 | 142 | 1.6 | 3.2 | 0.00 | 0.00 | 0.00 | 92 | 1004.0 |
| 20260509071351 | 11 | 120 | 3.2 | 4.8 | 0.00 | 0.00 | 0.00 | 92 | 1004.1 |
| 20260509070848 | 11 | 218 | 3.2 | 4.8 | 0.00 | 0.00 | 0.00 | 92 | 1004.0 |
| 20260509070345 | 11 | 230 | 3.2 | 3.2 | 0.00 | 0.00 | 0.00 | 92 | 1004.3 |
| 20260509065841 | 11 | 164 | 3.2 | 3.2 | 0.00 | 0.00 | 0.00 | 91 | 1004.6 |
| 20260509065337 | 11 | 180 | 1.6 | 4.8 | 0.00 | 0.00 | 0.00 | 91 | 1004.4 |
| 20260509064833 | 11 | 159 | 1.6 | 3.2 | 0.00 | 0.00 | 0.00 | 91 | 1004.5 |
| 20260509064331 | 12 | 228 | 3.2 | 3.2 | 0.00 | 0.00 | 0.00 | 91 | 1004.6 |
| 20260509063829 | 12 | 138 | 1.6 | 3.2 | 0.00 | 0.00 | 0.00 | 90 | 1004.8 |
| 20260509063324 | 12 | 126 | 1.6 | 4.8 | 0.00 | 0.00 | 0.00 | 90 | 1004.7 |
| 20260509062822 | 12 | 203 | 4.8 | 9.7 | 0.00 | 0.00 | 0.00 | 90 | 1004.6 |
| 20260509062319 | 12 | 133 | 1.6 | 4.8 | 0.00 | 0.00 | 0.00 | 90 | 1004.6 |
| 20260509061816 | 12 | 253 | 3.2 | 4.8 | 0.00 | 0.00 | 0.00 | 90 | 1004.8 |
| 20260509061314 | 12 | 101 | 3.2 | 4.8 | 0.00 | 0.00 | 0.00 | 90 | 1004.8 |
| 20260509060811 | 12 | 139 | 1.6 | 3.2 | 0.00 | 0.00 | 0.00 | 90 | 1005.0 |
| 20260509060308 | 12 | 251 | 0.0 | 8.0 | 0.00 | 0.00 | 0.00 | 89 | 1005.1 |
| 20260509055803 | 12 | 147 | 1.6 | 8.0 | 0.00 | 0.00 | 0.00 | 90 | 1004.9 |
| 20260509055259 | 12 | 118 | 0.0 | 3.2 | 0.00 | 0.00 | 0.00 | 89 | 1005.0 |
| 20260509054755 | 12 | 143 | 1.6 | 8.0 | 0.00 | 0.00 | 0.00 | 89 | 1005.0 |
| 20260509054252 | 12 | 181 | 1.6 | 4.8 | 0.00 | 0.00 | 0.00 | 89 | 1005.1 |
| 20260509053751 | 12 | 159 | 6.4 | 9.7 | 0.00 | 0.00 | 0.00 | 90 | 1005.2 |
| 20260509053248 | 12 | 254 | 1.6 | 4.8 | 0.00 | 0.00 | 0.00 | 90 | 1005.1 |
| 20260509052746 | 12 | 174 | 1.6 | 4.8 | 0.00 | 0.00 | 0.00 | 90 | 1005.2 |
| 20260509052243 | 12 | 96 | 3.2 | 8.0 | 0.00 | 0.00 | 0.00 | 90 | 1005.3 |
| 20260509051740 | 12 | 171 | 3.2 | 4.8 | 0.00 | 0.00 | 0.00 | 90 | 1005.4 |
| 20260509051239 | 12 | 172 | 3.2 | 4.8 | 0.00 | 0.00 | 0.00 | 89 | 1005.0 |
| 20260509050735 | 12 | 97 | 0.0 | 4.8 | 0.00 | 0.00 | 0.00 | 89 | 1005.0 |
| 20260509050231 | 12 | 245 | 3.2 | 3.2 | 0.00 | 0.00 | 0.00 | 89 | 1004.9 |
| 20260509045729 | 12 | 136 | 4.8 | 8.0 | 0.00 | 0.00 | 0.00 | 89 | 1005.0 |
| 20260509045225 | 12 | 143 | 1.6 | 3.2 | 0.00 | 0.00 | 0.00 | 88 | 1005.2 |
| 20260509044723 | 12 | 259 | 3.2 | 4.8 | 0.00 | 0.00 | 0.00 | 87 | 1005.0 |
| 20260509044221 | 13 | 320 | 3.2 | 3.2 | 0.00 | 0.00 | 0.00 | 87 | 1005.1 |
| 20260509043716 | 13 | 192 | 4.8 | 8.0 | 0.00 | 0.00 | 0.00 | 86 | 1005.1 |
| 20260509043213 | 13 | 109 | 3.2 | 4.8 | 0.00 | 0.00 | 0.00 | 86 | 1005.1 |
| 20260509042709 | 13 | 45 | 3.2 | 4.8 | 0.00 | 0.00 | 0.00 | 85 | 1005.2 |
| 20260509042205 | 13 | 260 | 6.4 | 8.0 | 0.00 | 0.00 | 0.00 | 84 | 1005.3 |
| 20260509041702 | 13 | 29 | 1.6 | 3.2 | 0.00 | 0.00 | 0.00 | 84 | 1005.2 |
| 20260509041200 | 13 | 107 | 1.6 | 3.2 | 0.00 | 0.00 | 0.00 | 83 | 1005.2 |
| 20260509040658 | 13 | 257 | 3.2 | 4.8 | 0.00 | 0.00 | 0.00 | 82 | 1005.3 |
| 20260509040154 | 13 | 123 | 0.0 | 3.2 | 0.00 | 0.00 | 0.00 | 81 | 1005.2 |
| 20260509035651 | 13 | 174 | 1.6 | 4.8 | 0.00 | 0.00 | 0.00 | 80 | 1005.1 |
| 20260509035148 | 14 | 174 | 4.8 | 8.0 | 0.00 | 0.00 | 0.00 | 79 | 1005.4 |
| 20260509034645 | 13 | 218 | 4.8 | 12.9 | 0.00 | 0.00 | 0.00 | 78 | 1005.4 |
| 20260509034142 | 14 | 249 | 3.2 | 9.7 | 0.00 | 0.00 | 0.00 | 77 | 1005.5 |
| 20260509033639 | 14 | 169 | 6.4 | 9.7 | 0.00 | 0.00 | 0.00 | 76 | 1005.2 |
| 20260509033136 | 14 | 321 | 3.2 | 8.0 | 0.00 | 0.00 | 0.00 | 76 | 1005.3 |
| 20260509032634 | 14 | 311 | 4.8 | 11.3 | 0.00 | 0.00 | 0.00 | 75 | 1005.3 |
| 20260509032130 | 14 | 251 | 6.4 | 9.7 | 0.00 | 0.00 | 0.00 | 75 | 1005.3 |
| 20260509031628 | 14 | 231 | 3.2 | 4.8 | 0.00 | 0.00 | 0.00 | 75 | 1005.3 |
| 20260509031125 | 14 | 292 | 4.8 | 4.8 | 0.00 | 0.00 | 0.00 | 75 | 1005.4 |
| 20260509030624 | 15 | 163 | 4.8 | 4.8 | 0.00 | 0.00 | 0.00 | 75 | 1005.4 |
| 20260509030120 | 15 | 138 | 1.6 | 3.2 | 0.00 | 0.00 | 0.00 | 74 | 1005.4 |
| 20260509025616 | 15 | 241 | 4.8 | 4.8 | 0.00 | 0.00 | 0.00 | 73 | 1005.2 |
| 20260509025112 | 15 | 115 | 3.2 | 8.0 | 0.00 | 0.00 | 0.00 | 72 | 1005.4 |
| 20260509024608 | 15 | 160 | 3.2 | 8.0 | 0.00 | 0.00 | 0.00 | 71 | 1005.4 |
| 20260509024104 | 15 | 118 | 3.2 | 8.0 | 0.00 | 0.00 | 0.00 | 70 | 1005.5 |
| 20260509023602 | 15 | 251 | 4.8 | 8.0 | 0.00 | 0.00 | 0.00 | 67 | 1005.3 |
| 20260509023059 | 15 | 310 | 3.2 | 3.2 | 0.00 | 0.00 | 0.00 | 65 | 1005.2 |
| 20260509022555 | 15 | 131 | 1.6 | 3.2 | 0.00 | 0.00 | 0.00 | 63 | 1005.2 |
| 20260509022053 | 15 | 265 | 1.6 | 3.2 | 0.00 | 0.00 | 0.00 | 63 | 1005.4 |
| 20260509021550 | 15 | 82 | 0.0 | 1.6 | 0.00 | 0.00 | 0.00 | 63 | 1005.3 |
| 20260509021047 | 15 | 100 | 0.0 | 1.6 | 0.00 | 0.00 | 0.00 | 62 | 1005.4 |
| 20260509020545 | 15 | 161 | 3.2 | 3.2 | 0.00 | 0.00 | 0.00 | 61 | 1005.0 |
| 20260509020042 | 15 | 120 | 0.0 | 3.2 | 0.00 | 0.00 | 0.00 | 61 | 1005.3 |
| 20260509015541 | 15 | 125 | 0.0 | 0.0 | 0.00 | 0.00 | 0.00 | 61 | 1005.3 |
| 20260509015037 | 16 | 141 | 0.0 | 1.6 | 0.00 | 0.00 | 0.00 | 60 | 1005.0 |
| 20260509014534 | 16 | 113 | 0.0 | 4.8 | 0.00 | 0.00 | 0.00 | 60 | 1005.2 |
| 20260509014030 | 16 | 125 | 0.0 | 1.6 | 0.00 | 0.00 | 0.00 | 59 | 1005.2 |
| 20260509013528 | 16 | 118 | 0.0 | 1.6 | 0.00 | 0.00 | 0.00 | 59 | 1005.0 |
| 20260509013023 | 16 | 112 | 0.0 | 3.2 | 0.00 | 0.00 | 0.00 | 59 | 1005.1 |
| 20260509012520 | 16 | 104 | 0.0 | 1.6 | 0.00 | 0.00 | 0.00 | 59 | 1005.3 |
| 20260509012017 | 16 | 126 | 1.6 | 1.6 | 0.00 | 0.00 | 0.00 | 58 | 1005.1 |
| 20260509011515 | 16 | 147 | 1.6 | 3.2 | 0.00 | 0.00 | 0.00 | 58 | 1005.1 |
| 20260509011012 | 17 | 137 | 1.6 | 3.2 | 0.00 | 0.00 | 0.00 | 57 | 1004.9 |
| 20260509010509 | 17 | 151 | 1.6 | 3.2 | 0.00 | 0.00 | 0.00 | 56 | 1004.9 |
| 20260509010005 | 17 | 118 | 1.6 | 8.0 | 0.00 | 0.00 | 0.00 | 55 | 1004.9 |
| 20260509005504 | 17 | 120 | 3.2 | 9.7 | 0.00 | 0.00 | 0.00 | 54 | 1004.9 |
| 20260509004958 | 17 | 228 | 1.6 | 8.0 | 0.00 | 0.00 | 0.00 | 55 | 1004.9 |
| 20260509004455 | 17 | 187 | 3.2 | 4.8 | 0.00 | 0.00 | 0.00 | 55 | 1005.0 |
| 20260509003952 | 17 | 146 | 3.2 | 8.0 | 0.00 | 0.00 | 0.00 | 54 | 1005.1 |
| 20260509003451 | 17 | 188 | 3.2 | 3.2 | 0.00 | 0.00 | 0.00 | 54 | 1005.1 |
| 20260509002947 | 18 | 125 | 3.2 | 8.0 | 0.00 | 0.00 | 0.00 | 53 | 1005.0 |
| 20260509002445 | 18 | 211 | 3.2 | 4.8 | 0.00 | 0.00 | 0.00 | 52 | 1005.2 |
| 20260509001942 | 18 | 206 | 1.6 | 4.8 | 0.00 | 0.00 | 0.00 | 52 | 1005.2 |
| 20260509001438 | 18 | 224 | 8.0 | 11.3 | 0.00 | 0.00 | 0.00 | 52 | 1005.2 |
| 20260509000935 | 18 | 195 | 1.6 | 4.8 | 0.00 | 0.00 | 0.00 | 51 | 1005.3 |
| 20260509000434 | 18 | 109 | 0.0 | 8.0 | 0.00 | 0.00 | 0.00 | 51 | 1005.4 |
| 20260508235929 | 18 | 124 | 0.0 | 1.6 | 0.00 | 0.00 | 0.00 | 52 | 1005.1 |
| 20260508235427 | 18 | 126 | 1.6 | 1.6 | 0.00 | 0.00 | 0.00 | 51 | 1005.1 |
| 20260508234923 | 18 | 174 | 1.6 | 3.2 | 0.00 | 0.00 | 0.00 | 52 | 1005.4 |
| 20260508234420 | 18 | 197 | 1.6 | 3.2 | 0.00 | 0.00 | 0.00 | 51 | 1005.3 |
| 20260508233918 | 18 | 127 | 3.2 | 3.2 | 0.00 | 0.00 | 0.00 | 49 | 1005.4 |
| 20260508233417 | 18 | 118 | 4.8 | 11.3 | 0.00 | 0.00 | 0.00 | 50 | 1005.3 |
| 20260508232914 | 18 | 106 | 0.0 | 1.6 | 0.00 | 0.00 | 0.00 | 51 | 1005.2 |
| 20260508232410 | 18 | 105 | 1.6 | 1.6 | 0.00 | 0.00 | 0.00 | 49 | 1005.5 |
| 20260508231908 | 18 | 138 | 4.8 | 4.8 | 0.00 | 0.00 | 0.00 | 48 | 1005.1 |
| 20260508231405 | 19 | 109 | 3.2 | 8.0 | 0.00 | 0.00 | 0.00 | 49 | 1005.2 |
| 20260508230902 | 18 | 212 | 3.2 | 3.2 | 0.00 | 0.00 | 0.00 | 50 | 1005.4 |
| 20260508230359 | 18 | 176 | 4.8 | 8.0 | 0.00 | 0.00 | 0.00 | 50 | 1005.3 |
| 20260508225856 | 18 | 180 | 1.6 | 8.0 | 0.00 | 0.00 | 0.00 | 51 | 1005.3 |
| 20260508225352 | 19 | 121 | 0.0 | 4.8 | 0.00 | 0.00 | 0.00 | 49 | 1005.5 |
| 20260508224850 | 19 | 162 | 1.6 | 8.0 | 0.00 | 0.00 | 0.00 | 48 | 1005.3 |
| 20260508224347 | 19 | 264 | 4.8 | 8.0 | 0.00 | 0.00 | 0.00 | 48 | 1005.4 |
| 20260508223845 | 20 | 172 | 3.2 | 4.8 | 0.00 | 0.00 | 0.00 | 47 | 1005.6 |
| 20260508223342 | 20 | 231 | 4.8 | 4.8 | 0.00 | 0.00 | 0.00 | 47 | 1005.5 |
| 20260508222839 | 20 | 136 | 4.8 | 8.0 | 0.00 | 0.00 | 0.00 | 46 | 1005.5 |
| 20260508222337 | 20 | 294 | 8.0 | 9.7 | 0.00 | 0.00 | 0.00 | 46 | 1005.6 |
| 20260508221833 | 20 | 235 | 3.2 | 8.0 | 0.00 | 0.00 | 0.00 | 45 | 1005.3 |
| 20260508221328 | 21 | 127 | 3.2 | 4.8 | 0.00 | 0.00 | 0.00 | 45 | 1005.4 |
| 20260508220825 | 20 | 268 | 3.2 | 4.8 | 0.00 | 0.00 | 0.00 | 46 | 1005.5 |
| 20260508220322 | 20 | 61 | 1.6 | 4.8 | 0.00 | 0.00 | 0.00 | 48 | 1005.6 |
| 20260508215818 | 20 | 168 | 3.2 | 9.7 | 0.00 | 0.00 | 0.00 | 49 | 1005.7 |
| 20260508215315 | 20 | 169 | 3.2 | 9.7 | 0.00 | 0.00 | 0.00 | 48 | 1005.6 |
| 20260508214812 | 20 | 131 | 1.6 | 4.8 | 0.00 | 0.00 | 0.00 | 48 | 1005.6 |
| 20260508214309 | 20 | 192 | 4.8 | 8.0 | 0.00 | 0.00 | 0.00 | 48 | 1005.7 |
| 20260508213806 | 21 | 232 | 4.8 | 8.0 | 0.00 | 0.00 | 0.00 | 46 | 1005.8 |
| 20260508213303 | 21 | 193 | 3.2 | 4.8 | 0.00 | 0.00 | 0.00 | 44 | 1005.7 |
| 20260508212759 | 21 | 118 | 0.0 | 4.8 | 0.00 | 0.00 | 0.00 | 49 | 1005.7 |
| 20260508212255 | 21 | 106 | 1.6 | 4.8 | 0.00 | 0.00 | 0.00 | 46 | 1006.0 |
| 20260508211751 | 20 | 152 | 1.6 | 3.2 | 0.00 | 0.00 | 0.00 | 50 | 1005.8 |
| 20260508211246 | 20 | 298 | 4.8 | 9.7 | 0.00 | 0.00 | 0.00 | 48 | 1005.9 |
| 20260508210745 | 20 | 95 | 0.0 | 3.2 | 0.00 | 0.00 | 0.00 | 51 | 1005.8 |
| 20260508210241 | 20 | 129 | 1.6 | 3.2 | 0.00 | 0.00 | 0.00 | 49 | 1005.9 |
| 20260508205738 | 19 | 194 | 4.8 | 9.7 | 0.00 | 0.00 | 0.00 | 48 | 1005.8 |
| 20260508205234 | 20 | 273 | 6.4 | 9.7 | 0.00 | 0.00 | 0.00 | 48 | 1005.9 |
| 20260508204731 | 20 | 179 | 3.2 | 8.0 | 0.00 | 0.00 | 0.00 | 49 | 1005.9 |
| 20260508204227 | 20 | 147 | 3.2 | 3.2 | 0.00 | 0.00 | 0.00 | 45 | 1005.8 |
| 20260508203723 | 20 | 153 | 1.6 | 8.0 | 0.00 | 0.00 | 0.00 | 48 | 1006.0 |
| 20260508203220 | 20 | 310 | 4.8 | 8.0 | 0.00 | 0.00 | 0.00 | 44 | 1006.2 |
| 20260508202716 | 20 | 138 | 1.6 | 4.8 | 0.00 | 0.00 | 0.00 | 44 | 1006.4 |
| 20260508202213 | 20 | 271 | 3.2 | 4.8 | 0.00 | 0.00 | 0.00 | 45 | 1006.2 |
| 20260508201710 | 20 | 174 | 6.4 | 9.7 | 0.00 | 0.00 | 0.00 | 45 | 1006.4 |
| 20260508201207 | 18 | 189 | 3.2 | 8.0 | 0.00 | 0.00 | 0.00 | 47 | 1006.4 |
| 20260508200704 | 19 | 83 | 3.2 | 8.0 | 0.00 | 0.00 | 0.00 | 47 | 1006.2 |
| 20260508200159 | 20 | 171 | 4.8 | 4.8 | 0.00 | 0.00 | 0.00 | 43 | 1006.7 |
| 20260508195656 | 21 | 287 | 8.0 | 11.3 | 0.00 | 0.00 | 0.00 | 44 | 1006.6 |
| 20260508195153 | 19 | 57 | 3.2 | 8.0 | 0.00 | 0.00 | 0.00 | 47 | 1006.8 |
| 20260508194649 | 20 | 131 | 1.6 | 8.0 | 0.00 | 0.00 | 0.00 | 48 | 1006.9 |
| 20260508194146 | 20 | 104 | 0.0 | 0.0 | 0.00 | 0.00 | 0.00 | 49 | 1007.0 |
| 20260508193643 | 20 | 96 | 0.0 | 1.6 | 0.00 | 0.00 | 0.00 | 46 | 1007.1 |
| 20260508193140 | 20 | 192 | 1.6 | 8.0 | 0.00 | 0.00 | 0.00 | 48 | 1007.1 |
| 20260508192637 | 20 | 100 | 1.6 | 4.8 | 0.00 | 0.00 | 0.00 | 49 | 1006.9 |
| 20260508192134 | 18 | 195 | 1.6 | 4.8 | 0.00 | 0.00 | 0.00 | 53 | 1007.2 |
| 20260508191631 | 18 | 3 | 1.6 | 3.2 | 0.00 | 0.00 | 0.00 | 55 | 1007.5 |
| 20260508191127 | 19 | 163 | 1.6 | 8.0 | 0.00 | 0.00 | 0.00 | 50 | 1007.3 |
| 20260508190625 | 19 | 112 | 1.6 | 3.2 | 0.00 | 0.00 | 0.00 | 50 | 1007.1 |
| 20260508190121 | 19 | 93 | 0.0 | 3.2 | 0.00 | 0.00 | 0.00 | 53 | 1007.4 |
| 20260508185618 | 18 | 283 | 3.2 | 4.8 | 0.00 | 0.00 | 0.00 | 50 | 1007.4 |
| 20260508185115 | 18 | 257 | 4.8 | 4.8 | 0.00 | 0.00 | 0.00 | 53 | 1007.6 |
| 20260508184612 | 18 | 135 | 4.8 | 9.7 | 0.00 | 0.00 | 0.00 | 52 | 1007.5 |
| 20260508184110 | 18 | 106 | 1.6 | 3.2 | 0.00 | 0.00 | 0.00 | 51 | 1007.7 |
| 20260508183606 | 18 | 95 | 0.0 | 3.2 | 0.00 | 0.00 | 0.00 | 52 | 1007.7 |
| 20260508183102 | 18 | 245 | 3.2 | 3.2 | 0.00 | 0.00 | 0.00 | 55 | 1007.6 |
| 20260508182558 | 18 | 278 | 4.8 | 4.8 | 0.00 | 0.00 | 0.00 | 54 | 1008.0 |
| 20260508182055 | 18 | 109 | 0.0 | 4.8 | 0.00 | 0.00 | 0.00 | 56 | 1007.8 |
| 20260508181555 | 18 | 170 | 0.0 | 1.6 | 0.00 | 0.00 | 0.00 | 55 | 1008.1 |
| 20260508181054 | 18 | 108 | 1.6 | 3.2 | 0.00 | 0.00 | 0.00 | 54 | 1007.9 |
| 20260508180550 | 17 | 103 | 1.6 | 3.2 | 0.00 | 0.00 | 0.00 | 56 | 1007.9 |
| 20260508180046 | 17 | 159 | 0.0 | 1.6 | 0.00 | 0.00 | 0.00 | 59 | 1007.9 |
| 20260508175543 | 18 | 120 | 0.0 | 4.8 | 0.00 | 0.00 | 0.00 | 55 | 1008.2 |
| 20260508175041 | 18 | 177 | 1.6 | 4.8 | 0.00 | 0.00 | 0.00 | 57 | 1008.4 |
| 20260508174538 | 18 | 275 | 6.4 | 8.0 | 0.00 | 0.00 | 0.00 | 58 | 1008.3 |
| 20260508174035 | 18 | 168 | 1.6 | 4.8 | 0.00 | 0.00 | 0.00 | 55 | 1008.5 |
| 20260508173532 | 18 | 129 | 3.2 | 3.2 | 0.00 | 0.00 | 0.00 | 59 | 1008.5 |
| 20260508173027 | 19 | 207 | 1.6 | 4.8 | 0.00 | 0.00 | 0.00 | 57 | 1008.4 |
| 20260508172525 | 19 | 102 | 1.6 | 1.6 | 0.00 | 0.00 | 0.00 | 56 | 1008.8 |
| 20260508172021 | 18 | 134 | 1.6 | 1.6 | 0.00 | 0.00 | 0.00 | 57 | 1008.6 |
| 20260508171518 | 18 | 234 | 1.6 | 4.8 | 0.00 | 0.00 | 0.00 | 58 | 1008.8 |
| 20260508171014 | 19 | 118 | 1.6 | 3.2 | 0.00 | 0.00 | 0.00 | 57 | 1008.8 |
| 20260508170512 | 19 | 103 | 0.0 | 1.6 | 0.00 | 0.00 | 0.00 | 61 | 1009.0 |
| 20260508170009 | 18 | 135 | 1.6 | 3.2 | 0.00 | 0.00 | 0.00 | 61 | 1008.9 |
| 20260508165507 | 18 | 148 | 3.2 | 4.8 | 0.00 | 0.00 | 0.00 | 60 | 1008.9 |
| 20260508165004 | 18 | 99 | 1.6 | 3.2 | 0.00 | 0.00 | 0.00 | 60 | 1009.1 |
| 20260508164459 | 18 | 90 | 3.2 | 3.2 | 0.00 | 0.00 | 0.00 | 59 | 1009.3 |
| 20260508163956 | 17 | 157 | 1.6 | 3.2 | 0.00 | 0.00 | 0.00 | 60 | 1009.3 |
| 20260508163454 | 17 | 164 | 3.2 | 4.8 | 0.00 | 0.00 | 0.00 | 61 | 1009.3 |
| 20260508162949 | 17 | 131 | 1.6 | 3.2 | 0.00 | 0.00 | 0.00 | 61 | 1009.7 |
| 20260508162447 | 17 | 204 | 1.6 | 4.8 | 0.00 | 0.00 | 0.00 | 62 | 1009.7 |
| 20260508161944 | 17 | 97 | 1.6 | 3.2 | 0.00 | 0.00 | 0.00 | 62 | 1009.6 |
| 20260508161441 | 17 | 98 | 1.6 | 1.6 | 0.00 | 0.00 | 0.00 | 62 | 1009.5 |
| 20260508160938 | 17 | 180 | 1.6 | 4.8 | 0.00 | 0.00 | 0.00 | 61 | 1009.8 |
| 20260508160438 | 16 | 114 | 1.6 | 3.2 | 0.00 | 0.00 | 0.00 | 64 | 1009.8 |
| 20260508155933 | 17 | 142 | 4.8 | 8.0 | 0.00 | 0.00 | 0.00 | 64 | 1009.6 |
| 20260508155430 | 17 | 188 | 3.2 | 3.2 | 0.00 | 0.00 | 0.00 | 61 | 1009.6 |
| 20260508154927 | 17 | 83 | 0.0 | 1.6 | 0.00 | 0.00 | 0.00 | 61 | 1009.7 |
| 20260508154424 | 16 | 245 | 3.2 | 3.2 | 0.00 | 0.00 | 0.00 | 65 | 1009.8 |
| 20260508153921 | 17 | 114 | 0.0 | 1.6 | 0.00 | 0.00 | 0.00 | 63 | 1010.0 |
| 20260508153418 | 16 | 74 | 3.2 | 3.2 | 0.00 | 0.00 | 0.00 | 65 | 1010.0 |
| 20260508152914 | 16 | 111 | 1.6 | 3.2 | 0.00 | 0.00 | 0.00 | 65 | 1010.0 |
| 20260508152411 | 16 | 230 | 3.2 | 8.0 | 0.00 | 0.00 | 0.00 | 68 | 1010.0 |
| 20260508151908 | 16 | 129 | 1.6 | 4.8 | 0.00 | 0.00 | 0.00 | 67 | 1010.1 |
| 20260508151404 | 16 | 142 | 1.6 | 3.2 | 0.00 | 0.00 | 0.00 | 65 | 1010.0 |
| 20260508150901 | 15 | 260 | 3.2 | 4.8 | 0.00 | 0.00 | 0.00 | 68 | 1010.0 |
| 20260508150357 | 15 | 132 | 0.0 | 3.2 | 0.00 | 0.00 | 0.00 | 69 | 1010.0 |
| 20260508145854 | 15 | 108 | 1.6 | 4.8 | 0.00 | 0.00 | 0.00 | 68 | 1010.4 |
| 20260508145350 | 15 | 151 | 1.6 | 3.2 | 0.00 | 0.00 | 0.00 | 68 | 1010.1 |
| 20260508144847 | 14 | 155 | 1.6 | 1.6 | 0.00 | 0.00 | 0.00 | 69 | 1010.4 |
| 20260508144345 | 14 | 194 | 0.0 | 3.2 | 0.00 | 0.00 | 0.00 | 70 | 1010.3 |
| 20260508143842 | 15 | 189 | 4.8 | 4.8 | 0.00 | 0.00 | 0.00 | 66 | 1010.5 |
| 20260508143339 | 15 | 81 | 0.0 | 1.6 | 0.00 | 0.00 | 0.00 | 66 | 1010.4 |
| 20260508142836 | 15 | 108 | 0.0 | 1.6 | 0.00 | 0.00 | 0.00 | 66 | 1010.5 |
| 20260508142332 | 14 | 79 | 1.6 | 1.6 | 0.00 | 0.00 | 0.00 | 65 | 1010.4 |
| 20260508141829 | 13 | 101 | 0.0 | 1.6 | 0.00 | 0.00 | 0.00 | 69 | 1010.3 |
| 20260508141326 | 13 | 117 | 0.0 | 1.6 | 0.00 | 0.00 | 0.00 | 71 | 1010.4 |
| 20260508140823 | 13 | 95 | 3.2 | 3.2 | 0.00 | 0.00 | 0.00 | 69 | 1010.5 |
| 20260508140320 | 12 | 80 | 0.0 | 1.6 | 0.00 | 0.00 | 0.00 | 71 | 1010.5 |
| 20260508135816 | 12 | 63 | 1.6 | 3.2 | 0.00 | 0.00 | 0.00 | 71 | 1010.7 |
| 20260508135313 | 12 | 104 | 1.6 | 3.2 | 0.00 | 0.00 | 0.00 | 72 | 1010.4 |
| 20260508134808 | 11 | 87 | 0.0 | 3.2 | 0.00 | 0.00 | 0.00 | 77 | 1010.7 |
| 20260508134305 | 11 | 96 | 0.0 | 1.6 | 0.00 | 0.00 | 0.00 | 79 | 1010.3 |
| 20260508133802 | 11 | 186 | 1.6 | 4.8 | 0.00 | 0.00 | 0.00 | 80 | 1010.5 |
| 20260508133300 | 11 | 97 | 0.0 | 1.6 | 0.00 | 0.00 | 0.00 | 81 | 1010.5 |
| 20260508132757 | 10 | 142 | 0.0 | 1.6 | 0.00 | 0.00 | 0.00 | 83 | 1010.4 |
| 20260508132254 | 10 | 76 | 1.6 | 1.6 | 0.00 | 0.00 | 0.00 | 85 | 1010.5 |
| 20260508131750 | 10 | 94 | 1.6 | 1.6 | 0.00 | 0.00 | 0.00 | 86 | 1010.4 |
| 20260508131247 | 9 | 88 | 1.6 | 1.6 | 0.00 | 0.00 | 0.00 | 87 | 1010.4 |
| 20260508130743 | 9 | 85 | 0.0 | 1.6 | 0.00 | 0.00 | 0.00 | 88 | 1010.3 |
| 20260508130241 | 8 | 89 | 0.0 | 3.2 | 0.00 | 0.00 | 0.00 | 88 | 1010.3 |
| 20260508125736 | 8 | 92 | 1.6 | 1.6 | 0.00 | 0.00 | 0.00 | 90 | 1010.5 |
| 20260508125232 | 8 | 97 | 1.6 | 1.6 | 0.00 | 0.00 | 0.00 | 90 | 1010.3 |
| 20260508124731 | 8 | 102 | 1.6 | 4.8 | 0.00 | 0.00 | 0.00 | 90 | 1010.7 |
| 20260508124228 | 8 | 85 | 1.6 | 1.6 | 0.00 | 0.00 | 0.00 | 92 | 1010.3 |
| 20260508123726 | 7 | 87 | 1.6 | 1.6 | 0.00 | 0.00 | 0.00 | 93 | 1010.2 |
| 20260508123224 | 7 | 122 | 1.6 | 3.2 | 0.00 | 0.00 | 0.00 | 95 | 1010.3 |
| 20260508122719 | 7 | 86 | 0.0 | 1.6 | 0.00 | 0.00 | 0.00 | 96 | 1010.4 |
| 20260508122217 | 7 | 85 | 0.0 | 1.6 | 0.00 | 0.00 | 0.00 | 96 | 1010.5 |
| 20260508121714 | 6 | 98 | 0.0 | 1.6 | 0.00 | 0.00 | 0.00 | 97 | 1010.7 |
| 20260508121213 | 6 | 108 | 0.0 | 0.0 | 0.00 | 0.00 | 0.00 | 98 | 1010.7 |
| 20260508120709 | 6 | 80 | 0.0 | 1.6 | 0.00 | 0.00 | 0.00 | 98 | 1010.4 |
| 20260508120208 | 6 | 67 | 1.6 | 1.6 | 0.00 | 0.00 | 0.00 | 98 | 1010.4 |
| 20260508115705 | 6 | 61 | 0.0 | 4.8 | 0.00 | 0.00 | 0.00 | 99 | 1010.3 |
| 20260508115202 | 6 | 80 | 0.0 | 0.0 | 0.00 | 0.00 | 0.00 | 99 | 1010.4 |
| 20260508114659 | 6 | 88 | 0.0 | 0.0 | 0.00 | 0.00 | 0.00 | 99 | 1010.3 |
| 20260508114155 | 6 | 92 | 0.0 | 0.0 | 0.00 | 0.00 | 0.00 | 99 | 1010.3 |
| 20260508113652 | 6 | 89 | 0.0 | 0.0 | 0.00 | 0.00 | 0.00 | 99 | 1010.3 |
| 20260508113151 | 6 | 90 | 0.0 | 0.0 | 0.00 | 0.00 | 0.00 | 99 | 1010.5 |
| 20260508112646 | 6 | 91 | 0.0 | 0.0 | 0.00 | 0.00 | 0.00 | 99 | 1010.2 |
| 20260508112143 | 6 | 89 | 0.0 | 0.0 | 0.00 | 0.00 | 0.00 | 99 | 1010.2 |
| 20260508111640 | 5 | 93 | 0.0 | 0.0 | 0.00 | 0.00 | 0.00 | 99 | 1010.2 |
| 20260508111137 | 5 | 97 | 0.0 | 0.0 | 0.00 | 0.00 | 0.00 | 99 | 1010.3 |
| 20260508110635 | 5 | 90 | 0.0 | 0.0 | 0.00 | 0.00 | 0.00 | 99 | 1010.1 |
| 20260508110131 | 5 | 89 | 0.0 | 0.0 | 0.00 | 0.00 | 0.00 | 99 | 1010.0 |
| 20260508105626 | 5 | 91 | 0.0 | 0.0 | 0.00 | 0.00 | 0.00 | 99 | 1010.0 |
| 20260508105123 | 5 | 82 | 0.0 | 0.0 | 0.00 | 0.00 | 0.00 | 99 | 1009.9 |
| 20260508104621 | 5 | 86 | 0.0 | 0.0 | 0.00 | 0.00 | 0.00 | 99 | 1010.1 |
| 20260508104117 | 5 | 84 | 0.0 | 0.0 | 0.00 | 0.00 | 0.00 | 99 | 1009.9 |
| 20260508103614 | 5 | 92 | 0.0 | 0.0 | 0.00 | 0.00 | 0.00 | 99 | 1010.5 |
| 20260508103112 | 4 | 99 | 0.0 | 0.0 | 0.00 | 0.00 | 0.00 | 99 | 1010.2 |
| 20260508102609 | 4 | 100 | 0.0 | 0.0 | 0.00 | 0.00 | 0.00 | 99 | 1010.1 |
| 20260508102107 | 4 | 98 | 0.0 | 0.0 | 0.00 | 0.00 | 0.00 | 99 | 1010.4 |
| 20260508101604 | 4 | 118 | 0.0 | 0.0 | 0.00 | 0.00 | 0.00 | 99 | 1010.4 |
| 20260508101101 | 4 | 90 | 0.0 | 0.0 | 0.00 | 0.00 | 0.00 | 99 | 1010.3 |
| 20260508100559 | 4 | 86 | 0.0 | 0.0 | 0.00 | 0.00 | 0.00 | 99 | 1010.2 |
| 20260508100055 | 4 | 87 | 0.0 | 0.0 | 0.00 | 0.00 | 0.00 | 99 | 1010.1 |
| 20260508095553 | 3 | 83 | 0.0 | 0.0 | 0.00 | 0.00 | 0.00 | 99 | 1010.3 |
| 20260508095049 | 3 | 97 | 0.0 | 0.0 | 0.00 | 0.00 | 0.00 | 99 | 1010.3 |
| 20260508094547 | 3 | 97 | 0.0 | 0.0 | 0.00 | 0.00 | 0.00 | 99 | 1010.2 |
| 20260508094044 | 3 | 96 | 0.0 | 0.0 | 0.00 | 0.00 | 0.00 | 99 | 1010.4 |
| 20260508093541 | 3 | 100 | 0.0 | 0.0 | 0.00 | 0.00 | 0.00 | 99 | 1010.4 |
| 20260508093038 | 3 | 102 | 0.0 | 0.0 | 0.00 | 0.00 | 0.00 | 99 | 1010.4 |
| 20260508092535 | 3 | 102 | 0.0 | 0.0 | 0.00 | 0.00 | 0.00 | 98 | 1010.4 |
| 20260508092034 | 3 | 102 | 0.0 | 0.0 | 0.00 | 0.00 | 0.00 | 98 | 1010.4 |
| 20260508091531 | 4 | 116 | 0.0 | 0.0 | 0.00 | 0.00 | 0.00 | 98 | 1010.4 |
| 20260508091028 | 4 | 96 | 0.0 | 0.0 | 0.00 | 0.00 | 0.00 | 98 | 1010.3 |
| 20260508090526 | 4 | 85 | 0.0 | 0.0 | 0.00 | 0.00 | 0.00 | 98 | 1010.3 |
| 20260508090022 | 4 | 94 | 0.0 | 0.0 | 0.00 | 0.00 | 0.00 | 97 | 1010.5 |
| 20260508085519 | 4 | 95 | 0.0 | 0.0 | 0.00 | 0.00 | 0.00 | 97 | 1010.5 |
| 20260508085016 | 4 | 95 | 0.0 | 0.0 | 0.00 | 0.00 | 0.00 | 97 | 1010.7 |
| 20260508084513 | 4 | 101 | 0.0 | 0.0 | 0.00 | 0.00 | 0.00 | 97 | 1010.6 |
| 20260508084010 | 4 | 105 | 0.0 | 0.0 | 0.00 | 0.00 | 0.00 | 97 | 1010.6 |
| 20260508083507 | 4 | 103 | 0.0 | 0.0 | 0.00 | 0.00 | 0.00 | 97 | 1010.6 |
| 20260508083003 | 4 | 96 | 0.0 | 0.0 | 0.00 | 0.00 | 0.00 | 96 | 1010.7 |